FW0517 Weather Reports


time (UTC)temp
C
wind
direction
speed
KPH
gust
KPH
rain 1hr
cm
rain 24hr
cm
rain mn
cm
humidity
%
barometer
mb
20260505081529 -17 0.0 0.0 0.00 0.00 0.00 22 1011.6
20260505080535 -17 225 0.0 3.2 0.00 0.00 0.00 22 1011.6
20260505075524 -17 113 0.0 1.6 0.00 0.00 0.00 22 1011.7
20260505074524 -17 0.0 0.0 0.00 0.00 0.00 22 1011.8
20260505073542 -17 0.0 0.0 0.00 0.00 0.00 22 1011.8
20260505072515 -17 0.0 0.0 0.00 0.00 0.00 22 1011.9
20260505071519 -17 0.0 6.4 0.00 0.00 0.00 22 1012.0
20260505070518 -17 158 1.6 8.0 0.00 0.00 0.00 22 1012.0
20260505065518 -17 156 0.0 6.4 0.00 0.00 0.00 22 1012.0
20260505064516 -17 137 1.6 11.3 0.00 0.00 0.00 22 1011.8
20260505063520 -17 0.0 0.0 0.00 0.00 0.00 22 1011.6
20260505062524 -17 0.0 0.0 0.00 0.00 0.00 22 1011.3
20260505061529 -17 182 4.8 11.3 0.00 0.00 0.00 22 1011.3
20260505060515 -17 150 8.0 12.9 0.00 0.00 0.00 22 1011.1
20260505055520 -17 95 1.6 8.0 0.00 0.00 0.00 22 1011.0
20260505054524 -17 90 0.0 1.6 0.00 0.00 0.00 22 1010.9
20260505053533 -17 144 6.4 12.9 0.00 0.00 0.00 22 1010.8
20260505052515 -17 0.0 1.6 0.00 0.00 0.00 22 1010.8
20260505051520 -17 0.0 4.8 0.00 0.00 0.00 22 1010.7
20260505050524 -17 188 1.6 11.3 0.00 0.00 0.00 22 1010.7
20260505041549 -17 113 0.0 4.8 0.00 0.00 0.00 22 1010.0
20260505040516 -17 0.0 0.0 0.00 0.00 0.00 22 1009.8
20260505035519 -17 0.0 0.0 0.00 0.00 0.00 22 1009.6
20260505034524 -17 0.0 0.0 0.00 0.00 0.00 22 1009.6
20260505033529 -17 0.0 0.0 0.00 0.00 0.00 22 1009.3
20260505032515 -17 135 0.0 3.2 0.00 0.00 0.00 22 1009.1
20260505031540 -17 113 0.0 3.2 0.00 0.00 0.00 22 1008.8
20260505030525 -17 0.0 0.0 0.00 0.00 0.00 22 1008.8
20260505025528 -17 0.0 0.0 0.00 0.00 0.00 22 1008.7
20260505024515 -17 0.0 0.0 0.00 0.00 0.00 22 1008.5
20260505023519 -17 0.0 0.0 0.00 0.00 0.00 22 1008.5
20260505022525 -17 0.0 0.0 0.00 0.00 0.00 22 1008.4
20260505021528 -17 182 0.0 3.2 0.00 0.00 0.00 22 1008.3
20260505020519 -17 0.0 0.0 0.00 0.00 0.00 22 1008.3
20260505015519 -17 0.0 0.0 0.00 0.00 0.00 22 1008.3
20260505014528 -17 0.0 0.0 0.00 0.00 0.00 22 1008.3
20260505013528 -17 0.0 0.0 0.00 0.00 0.00 22 1008.3
20260505012527 -17 0.0 0.0 0.00 0.00 0.00 22 1008.3
20260505011524 -17 0.0 0.0 0.00 0.00 0.00 22 1008.5
20260505010523 -17 0.0 0.0 0.00 0.00 0.00 22 1008.6
20260505005522 -17 0.0 0.0 0.00 0.00 0.00 22 1008.7
20260505004521 -17 0.0 3.2 0.00 0.00 0.00 22 1008.8
20260505003519 -17 0.0 0.0 0.00 0.00 0.00 22 1008.8
20260505002518 -17 0.0 4.8 0.00 0.00 0.00 22 1009.0
20260505001516 -17 180 0.0 1.6 0.00 0.00 0.00 22 1009.1
20260505000532 -17 0.0 3.2 0.00 0.00 0.00 22 1009.1
20260504235519 -17 158 1.6 4.8 0.00 0.00 0.00 22 1009.0
20260504234523 -17 71 3.2 6.4 0.00 0.00 0.00 22 1009.0
20260504233528 -17 119 4.8 14.5 0.00 0.00 0.00 22 1009.1
20260504232532 -17 115 0.0 3.2 0.00 0.00 0.00 22 1009.2
20260504231519 -17 120 3.2 9.7 0.00 0.00 0.00 22 1009.4
20260504230545 -17 86 0.0 3.2 0.00 0.00 0.00 22 1009.4
20260504225528 -17 181 3.2 12.9 0.00 0.00 0.00 22 1009.3
20260504224533 -17 257 1.6 8.0 0.00 0.00 0.00 22 1009.2
20260504223519 -17 257 3.2 9.7 0.00 0.00 0.00 22 1009.2
20260504222524 -17 239 4.8 9.7 0.00 0.00 0.00 22 1009.1
20260504221528 -17 220 4.8 16.1 0.00 0.00 0.00 22 1009.0
20260504220532 -17 273 4.8 14.5 0.00 0.00 0.00 22 1009.0
20260504215519 -17 1.6 4.8 0.00 0.00 0.00 22 1009.1
20260504214523 -17 273 4.8 11.3 0.00 0.00 0.00 22 1009.3
20260504213549 -17 266 3.2 9.7 0.00 0.00 0.00 22 1009.4
20260504212532 -17 318 1.6 6.4 0.00 0.00 0.00 22 1009.6
20260504211540 -17 232 1.6 11.3 0.00 0.00 0.00 22 1009.6
20260504210524 -17 291 1.6 4.8 0.00 0.00 0.00 22 1009.8
20260504205528 -17 250 1.6 8.0 0.00 0.00 0.00 22 1009.9
20260504204533 -17 283 1.6 6.4 0.00 0.00 0.00 22 1009.9
20260504203520 -17 193 1.6 4.8 0.00 0.00 0.00 22 1010.2
20260504202544 -17 0.0 3.2 0.00 0.00 0.00 22 1010.2
20260504201528 -17 270 3.2 14.5 0.00 0.00 0.00 22 1010.2
20260504200532 -17 280 1.6 8.0 0.00 0.00 0.00 22 1010.3
20260504195519 -17 158 1.6 8.0 0.00 0.00 0.00 22 1010.4
20260504194523 -17 248 1.6 4.8 0.00 0.00 0.00 22 1010.6
20260504193528 -17 180 0.0 3.2 0.00 0.00 0.00 22 1010.8
20260504192532 -17 293 1.6 4.8 0.00 0.00 0.00 22 1010.8
20260504191519 -17 0.0 0.0 0.00 0.00 0.00 22 1011.0
20260504190523 -17 0.0 0.0 0.00 0.00 0.00 22 1011.1
20260504185528 -17 0.0 1.6 0.00 0.00 0.00 22 1011.1
20260504184526 -17 280 0.0 4.8 0.00 0.00 0.00 22 1011.1
20260504183539 -17 315 1.6 8.0 0.00 0.00 0.00 22 1011.3
20260504182523 -17 270 0.0 4.8 0.00 0.00 0.00 22 1011.6
20260504181523 -17 285 0.0 4.8 0.00 0.00 0.00 22 1011.7
20260504180540 -17 326 0.0 1.6 0.00 0.00 0.00 22 1011.8
20260504175520 -17 8 1.6 11.3 0.00 0.00 0.00 22 1011.8
20260504174517 -17 0.0 0.0 0.00 0.00 0.00 22 1011.8
20260504173520 -17 232 1.6 8.0 0.00 0.00 0.00 22 1012.0
20260504172533 -17 203 0.0 4.8 0.00 0.00 0.00 22 1012.0
20260504171518 -17 139 1.6 8.0 0.00 0.00 0.00 22 1012.2
20260504170523 -17 0.0 0.0 0.00 0.00 0.00 22 1012.2
20260504150522 -17 0.0 0.0 0.00 0.00 0.00 22 1012.5
20260504140531 -17 0.0 0.0 0.00 0.00 0.00 22 1012.6
20260504130542 -17 0.0 0.0 0.00 0.00 0.00 22 1012.6
20260504110516 -17 0.0 0.0 0.00 0.00 0.00 22 1012.7
20260504100531 -17 0.0 0.0 0.00 0.00 0.00 22 1012.2